Wind_Speed
3 3 5 11 7 7 4 3 4 4 10 10 5 7 8 8 12 15 17 20 16 9 19 28 30 31 34 41 41 24 1 15 24 32 35 37 32 27 21 18 17 17 20 17
5 5 12 9 4 5 8 2 6 3 10 12 7 5 7 9 4 13 14 17 12 16 17 26 32 32 32 34 33 33 31 14 11 19 21 18 20 15 8 10 10 4 9 36
7 7 8 2 6 5 2 3 3 1 8 9 10 8 9 5 9 17 5 8 5 16 14 13 23 29 33 34 34 36 37 32 35 33 13 21 22 15 10 5 8 16 13 20
3 3 2 6 3 2 3 3 3 5 4 4 1 1 5 8 7 4 8 4 13 13 12 13 20 24 24 27 37 38 37 37 38 39 39 32 21 20 15 10 10 7 18 13
5 0 4 5 3 3 7 4 5 2 4 5 8 5 4 4 8 13 5 9 12 14 15 15 17 23 27 29 30 35 37 37 37 38 31 26 24 22 17 13 13 7 4 6
5 4 2 4 4 5 6 4 7 5 4 4 6 6 6 3 3 10 11 7 10 14 13 11 19 22 26 32 34 37 37 38 39 40 37 31 23 19 20 18 16 14 12 9
7 2 2 2 5 7 10 7 4 5 5 3 4 9 4 7 6 7 6 6 6 8 9 8 7 15 23 25 27 29 32 34 37 37 37 35 27 17 18 15 11 13 15 15
4 5 1 1 3 3 3 6 5 1 2 3 6 4 3 5 7 6 6 7 7 8 7 7 10 16 17 18 20 23 26 29 33 37 38 35 31 17 15 14 13 18 18 14
6 5 6 6 0 5 5 6 1 6 3 4 1 3 2 4 7 7 6 8 6 7 7 7 10 12 12 14 15 18 19 21 23 29 33 34 32 30 21 13 9 13 19 16
4 3 4 7 8 7 7 2 6 5 2 2 3 2 3 4 3 4 6 7 7 5 6 5 8 14 14 14 13 14 15 16 18 21 26 30 30 33 30 19 13 8 11 9
3 3 6 4 6 3 6 5 6 5 4 4 0 4 2 3 1 5 4 6 8 8 7 6 9 14 15 16 16 15 18 23 23 22 29 31 33 36 32 27 20 17 15 8
3 4 1 1 3 3 4 3 5 5 5 1 4 3 4 3 8 8 9 11 10 8 7 7 12 16 15 21 23 20 19 25 23 24 31 32 31 32 33 29 23 23 20 16
4 4 4 8 7 7 5 4 3 4 3 2 5 3 6 3 8 8 10 8 7 8 8 7 12 14 17 23 25 25 30 30 26 30 30 29 32 31 28 26 23 24 20 16
6 3 5 4 5 4 7 10 5 4 4 2 3 4 8 9 8 8 8 7 6 6 6 5 7 13 17 23 27 27 22 23 27 29 28 28 31 30 31 29 22 20 13 5
5 3 4 3 5 5 7 8 9 11 2 5 5 10 3 4 6 5 5 7 8 8 8 7 7 9 17 22 22 18 18 24 26 29 31 29 29 32 29 27 21 10 11 19
5 2 6 4 3 11 9 9 11 10 11 11 9 8 4 4 3 5 4 5 5 5 6 8 8 14 18 21 14 18 24 23 24 25 24 27 29 28 28 19 14 14 21 28
3 2 3 4 7 3 7 8 11 10 12 3 5 3 4 6 4 4 6 7 7 7 7 9 9 16 18 12 16 18 19 19 24 26 27 28 30 30 21 9 17 25 27 28
3 2 2 2 6 4 1 4 16 15 9 7 6 4 4 3 2 3 4 5 8 8 8 10 17 21 12 10 14 17 17 18 20 23 24 26 26 35 27 20 22 23 26 27
4 4 2 3 1 2 3 5 3 3 5 3 4 5 5 6 5 6 6 5 5 6 14 17 21 14 12 12 12 14 15 17 19 19 18 20 21 24 28 29 26 17 25 26
5 5 4 2 1 3 1 4 4 5 1 4 4 5 5 5 5 4 8 8 10 16 21 21 23 21 15 12 15 14 15 12 17 17 16 19 22 21 23 22 21 21 23 23
2 2 2 0 3 1 3 5 6 1 3 2 1 3 5 2 4 6 7 10 13 12 18 20 14 17 18 12 14 12 11 14 17 18 20 22 21 21 22 21 19 21 22 25
4 3 0 2 3 2 6 4 4 4 2 2 5 3 4 4 7 6 7 7 10 13 16 19 20 16 19 20 10 8 10 10 17 18 21 22 24 25 22 24 23 18 18 20
3 4 4 3 4 2 5 7 1 2 3 4 3 4 3 6 6 6 5 7 9 11 16 19 18 15 20 23 11 3 7 14 16 15 18 18 21 27 30 26 21 22 19 18
4 2 4 4 1 4 4 4 5 3 3 4 5 7 7 6 7 6 6 8 6 10 13 18 18 15 19 25 13 6 8 13 15 17 18 20 25 28 31 30 27 26 23 22
3 3 3 3 3 2 6 4 3 6 8 9 11 8 7 7 7 7 6 10 8 12 16 18 16 15 20 25 5 6 10 13 15 14 15 18 21 25 29 31 28 26 25 24
2 2 3 4 4 5 2 3 5 8 7 6 7 8 12 10 7 8 8 13 13 18 14 14 17 17 20 20 3 7 11 13 11 9 8 10 17 21 21 21 23 24 22 21
Wind_Direction
309 55 254 264 213 217 271 342 81 105 152 67 56 49 327 8 44 48 18 356 327 351 43 35 33 26 29 39 44 44 250 246 223 220 220 229 229 235 232 227 210 194 176 188
19 224 244 242 314 327 331 81 333 90 120 95 84 23 341 27 28 72 12 330 314 34 37 24 29 30 29 31 31 39 41 41 273 278 267 250 247 234 214 137 145 130 343 331
180 227 227 317 0 47 25 63 356 307 72 83 98 12 355 344 55 83 244 290 44 75 59 34 36 30 28 31 30 34 36 35 28 34 319 337 350 10 70 70 71 13 339 308
214 294 53 31 15 116 11 270 330 319 67 160 95 165 323 341 358 60 94 247 88 85 76 54 44 41 37 35 38 35 31 28 27 39 34 40 39 47 71 97 130 269 324 261
259 349 47 36 273 345 245 322 312 304 115 105 7 83 315 3 6 21 343 76 79 85 76 64 54 47 43 41 35 35 33 29 24 34 33 32 32 43 45 25 6 11 256 318
241 274 122 213 306 320 274 348 30 40 63 56 254 121 334 331 88 86 276 86 83 81 82 75 62 55 46 42 37 32 31 26 24 24 28 26 20 32 37 37 22 5 351 332
328 234 284 65 26 358 52 54 360 8 12 178 260 57 219 286 111 177 155 120 108 102 88 91 85 69 62 50 42 32 26 23 22 22 20 20 20 13 11 7 23 12 349 343
5 35 166 358 136 203 25 112 138 251 269 283 359 139 217 215 338 283 110 115 87 83 92 89 91 83 75 60 46 36 29 22 19 15 11 7 6 5 355 351 353 357 352 345
23 335 332 340 288 91 313 35 250 107 13 74 325 30 71 254 290 43 50 80 106 102 89 102 100 104 81 63 55 41 32 24 17 11 4 0 353 350 341 328 333 350 348 342
333 7 17 312 45 16 85 274 27 15 65 24 338 162 242 177 265 41 51 80 87 112 105 84 67 63 55 42 31 31 22 16 6 3 358 352 347 347 344 327 310 315 347 339
32 73 303 32 15 312 6 35 56 109 119 151 183 316 284 189 244 85 59 31 66 68 53 41 48 50 39 24 15 3 7 0 354 352 349 352 349 346 344 336 322 315 300 299
15 134 308 240 245 89 114 117 109 110 283 158 127 298 317 56 36 48 45 44 61 58 44 37 43 25 16 12 5 360 353 351 344 346 348 354 1 2 4 354 337 337 315 289
348 14 18 353 349 9 32 341 119 111 81 204 112 213 19 68 46 35 70 61 50 37 26 13 19 8 7 360 356 352 353 358 7 5 7 4 357 354 355 355 342 335 328 319
83 75 134 169 238 249 325 325 12 107 95 110 45 101 5 10 42 40 44 44 36 32 20 2 359 353 352 350 351 359 13 15 7 6 3 356 351 348 342 339 337 330 341 47
83 53 14 254 277 351 17 72 67 63 42 89 118 93 23 5 80 54 31 23 18 7 358 334 313 320 339 344 359 21 17 12 9 5 2 354 349 345 348 345 345 356 101 111
7 348 29 316 30 61 45 31 58 48 75 100 107 63 358 50 106 55 23 7 357 335 329 321 323 329 325 349 18 17 18 12 6 9 8 357 348 342 342 352 63 90 98 100
74 77 44 296 337 28 37 350 85 71 41 93 68 8 347 33 58 61 12 351 328 313 308 311 308 314 325 19 31 27 12 9 13 14 5 360 349 338 331 14 91 93 91 90
97 71 96 271 3 57 165 85 98 88 57 57 73 47 37 356 290 282 314 308 326 317 310 316 317 322 24 60 43 19 14 16 21 18 11 17 24 30 32 48 82 87 90 83
100 106 49 95 68 97 345 3 10 9 31 24 70 15 5 353 12 328 334 333 291 298 327 334 354 16 80 39 18 25 32 30 24 23 17 19 27 44 48 44 49 80 83 80
75 79 100 41 74 238 238 290 331 124 316 359 57 8 332 358 14 280 307 313 339 27 29 27 68 48 20 5 10 27 33 36 32 28 24 44 41 47 50 49 58 102 92 84
19 4 161 236 204 223 332 331 326 149 237 287 319 331 351 356 218 253 299 350 25 20 24 24 38 25 14 350 3 36 42 33 49 54 55 54 51 39 48 52 80 95 94 91
154 120 311 73 53 281 345 24 89 221 300 330 10 332 326 310 296 327 359 20 24 13 10 13 6 3 6 1 358 37 67 67 67 68 62 56 48 47 55 70 89 79 96 92
34 174 157 139 182 258 4 101 86 152 56 346 341 312 318 351 348 355 349 346 357 9 8 359 357 4 357 360 3 20 75 91 83 76 63 61 63 61 61 62 65 61 64 77
348 132 112 111 31 91 67 54 65 55 25 336 343 24 44 24 5 346 327 313 346 6 357 353 347 351 343 349 353 75 105 97 97 85 81 80 75 71 66 62 63 70 75 82
224 25 96 67 115 154 30 47 32 25 24 28 42 42 27 11 336 308 312 327 359 348 336 335 339 336 340 356 54 99 112 108 99 101 101 90 83 80 75 69 65 73 75 76
352 178 141 188 212 145 249 354 50 46 43 51 44 12 0 352 332 332 332 330 329 324 327 336 345 338 335 352 96 105 107 102 109 122 133 126 100 93 89 85 81 76 75 69
Height
770 790 801 785 783 776 772 777 782 772 773 785 798 796 791 782 769 769 777 784 782 777 766 765 762 759 754 748 748 749 750 748 748 746 746 743 739 741 741 739 739 741 744 742
787 797 771 767 757 767 771 777 783 771 773 782 798 804 789 784 783 769 786 796 786 775 772 772 771 769 766 761 757 759 757 754 750 749 749 744 738 735 736 742 745 745 745 726
791 771 755 760 768 775 773 780 778 779 778 785 788 809 805 790 786 794 797 804 790 784 788 788 780 777 774 770 768 762 760 757 754 750 745 741 733 719 731 739 736 733 750 747
770 753 758 767 770 771 785 760 762 770 788 812 786 851 816 806 801 800 796 803 789 789 792 791 787 785 783 781 775 770 766 762 759 760 756 752 748 746 744 749 744 733 728 742
776 765 767 775 769 762 778 755 764 765 792 797 805 827 823 809 815 810 810 799 791 789 789 790 791 791 790 787 784 780 775 769 766 766 763 758 754 753 755 747 738 737 740 741
766 749 754 759 753 757 755 763 781 791 802 831 814 820 844 828 825 827 812 800 798 788 789 793 794 794 794 792 787 783 779 775 770 767 766 763 758 754 752 747 745 743 741 742
777 767 752 749 770 765 774 798 834 832 843 839 807 827 839 822 805 808 806 804 800 793 792 797 798 797 797 794 790 786 782 778 773 770 767 765 762 757 753 750 746 744 740 737
810 807 768 752 766 779 779 796 833 835 845 837 810 842 833 815 807 804 802 800 797 798 798 799 799 799 798 795 791 787 784 781 777 772 769 767 764 760 756 752 747 742 739 737
812 800 765 760 753 767 783 804 788 819 822 840 839 826 818 815 814 804 805 802 807 805 803 802 801 798 795 793 790 787 785 782 778 774 770 767 764 760 755 751 748 745 740 734
794 812 782 770 763 769 780 779 817 830 847 850 842 836 842 824 817 811 810 811 809 807 806 804 802 800 799 796 793 789 786 782 779 775 771 767 763 758 753 750 746 743 739 735
793 807 803 784 796 797 800 806 812 825 837 858 863 854 820 820 815 816 813 810 810 810 810 808 806 803 800 797 793 790 786 782 778 774 770 765 761 756 750 746 743 740 738 734
797 819 826 805 783 779 788 798 815 845 834 839 851 859 821 820 817 814 817 815 813 813 811 808 805 804 801 798 794 790 787 782 778 774 769 764 758 754 749 743 741 737 735 733
800 828 846 828 810 792 799 794 798 818 831 831 855 858 825 820 822 822 821 820 818 815 811 809 805 803 800 796 793 789 786 782 777 773 767 762 758 753 748 743 740 736 731 730
800 827 838 854 832 819 814 803 798 814 841 841 846 845 838 833 832 829 826 823 820 816 813 811 808 804 800 796 793 790 786 782 777 772 768 763 757 751 746 740 735 731 728 727
812 832 825 820 815 811 814 813 812 819 818 840 846 850 845 839 837 833 829 825 821 819 816 813 808 803 798 794 791 789 785 781 777 773 767 762 757 752 745 738 732 727 725 726
820 834 828 826 813 818 826 819 818 822 827 836 841 849 840 838 836 836 832 827 824 820 815 810 804 800 796 794 791 790 787 783 778 773 768 763 756 750 745 740 734 731 732 734
826 836 843 842 823 822 846 839 835 840 838 840 854 849 842 843 838 835 832 828 824 819 813 808 803 798 795 795 795 791 787 783 779 776 771 765 758 748 744 741 738 738 740 740
827 835 845 848 838 862 840 832 832 841 844 844 846 845 842 840 835 833 828 826 823 818 813 807 802 797 796 795 791 790 786 784 779 776 773 769 762 756 750 749 747 746 746 747
820 839 849 855 859 842 837 836 837 838 853 844 846 843 840 837 834 833 827 824 821 817 813 807 803 800 799 797 793 790 786 784 782 777 774 771 767 762 758 756 756 756 755 755
822 833 846 851 851 858 844 830 823 831 861 843 842 842 841 839 851 844 828 823 820 816 814 810 805 804 802 799 796 792 789 786 782 780 779 775 772 767 765 763 761 761 760 760
841 844 849 858 857 849 833 830 823 846 860 842 840 839 841 844 842 833 827 823 821 819 816 813 809 806 803 799 797 792 790 790 787 786 783 780 776 773 769 767 766 767 767 767
840 852 855 857 859 858 834 833 846 850 843 840 840 839 838 837 832 828 827 824 821 819 816 813 809 806 804 800 795 793 789 791 789 790 787 784 782 779 775 773 772 773 772 772
843 841 851 853 859 849 844 844 842 843 843 841 839 837 835 834 832 830 827 825 821 818 816 813 810 806 802 799 795 793 793 790 790 792 790 789 787 785 781 778 777 776 776 776
829 827 845 849 851 849 846 843 842 841 841 840 838 838 837 837 834 831 827 823 820 818 815 813 809 805 801 797 794 795 794 793 792 794 793 793 791 790 788 786 784 783 782 782
837 831 844 855 851 849 847 845 843 842 841 842 841 840 839 837 834 830 826 823 821 818 815 811 809 805 801 796 793 795 795 795 795 796 796 796 796 795 794 792 792 790 790 789
840 841 849 857 849 850 849 844 842 843 845 844 843 841 839 836 834 830 826 823 819 816 812 810 808 805 801 798 796 797 798 797 797 797 797 798 798 799 799 799 798 797 796 795